Location: South Wawona
(37.5424°N, 119.6449°W)
Time: 06:14:41
(UTC+00:00)

Daily predictions for brighter satellites

Satellite Brightness Start Highest point End
(mag) Time Altitude Azimuth Time Altitude Azimuth Time Altitude Azimuth
Cosmos 1697 Rocket 2.6 12:31:20 85° E 12:31:20 85° E 12:36:55 10° SSE
Meteor 2-12 Rocket 4.3 12:35:37 10° S 12:41:43 80° W 12:47:52 10° N
USA 238 DEB 3.9 12:41:43 50° WNW 12:43:49 69° WSW 12:51:55 10° SSE
USA 238 3.9 12:41:46 50° NW 12:43:56 69° WSW 12:52:03 10° SSE
Cosmos 468 Rocket 4.0 12:41:17 10° SSW 12:46:32 82° ESE 12:51:47 10° NNE
Atlas Centaur 2 4.3 12:51:30 20° SW 12:53:03 21° SSW 12:58:45 10° SSE
CZ-4 R/B 4.1 12:51:47 10° NNE 12:56:24 63° ESE 13:00:57 10° S
Cosmos 1536 Rocket 3.5 12:52:52 10° S 12:57:17 83° E 13:01:44 10° N
Cosmos 2082 Rocket 2.1 12:56:25 10° SSW 13:02:02 87° ESE 13:07:41 10° NNE
FengYun 1-2 T 4.2 12:59:55 10° N 13:05:30 63° WNW 13:11:04 10° SSW
H-2A R/B 4.2 13:04:50 11° SSW 13:06:19 14° S 13:09:28 10° SE
SKYMED 2 3.8 13:04:58 10° SSE 13:09:16 68° ENE 13:12:57 14° N
Cosmos 1634 Rocket 4.3 13:10:36 38° WNW 13:11:24 40° W 13:17:04 10° SSW
Cosmos 2098 Rocket 3.6 13:09:12 11° NNW 13:14:37 69° W 13:20:23 10° S
SL-8 R/B 3.9 13:17:15 36° NW 13:19:04 65° NNE 13:23:47 10° ESE
Tiangong -1.3 13:21:09 39° N 13:21:09 39° N 13:24:14 10° ENE
SL-24 R/B 4.4 13:16:58 10° N 13:22:29 77° WNW 13:27:14 10° SSW
Cosmos 372 Rocket 4.4 13:17:58 10° N 13:22:59 60° ENE 13:27:58 10° SSE
Cosmos 990 Rocket 4.2 13:24:30 28° NW 13:26:53 48° WSW 13:31:52 10° S
Cosmos 2369 4.1 13:24:27 10° NNW 13:30:07 64° ENE 13:35:43 10° SSE
SL-24 R/B - RUBIN 2 3.5 13:28:17 22° NNW 13:31:00 79° ENE 13:35:23 10° SSE
Cosmos 1980 Rocket 2.1 13:27:36 18° NNW 13:31:50 68° WSW 13:37:21 10° S
Cosmos 2279 Rocket 4.4 13:26:25 10° NNW 13:32:11 40° W 13:37:56 10° SSW
Cosmos 1346 Rocket 2.5 13:29:21 10° SSW 13:33:00 64° W 13:36:41 10° N
COSMO-SKYMED 1 2.3 13:36:51 10° S 13:40:56 78° WSW 13:45:04 10° NNW
CZ-3C R/B 4.0 13:37:50 10° SSW 13:42:15 23° SSE 13:56:31 10° ESE
Cosmos 1606 Rocket 3.5 13:40:16 10° N 13:44:41 74° W 13:49:04 10° S
Cosmos 2333 Rocket 4.2 13:42:20 10° N 13:47:05 26° ENE 13:51:47 10° ESE
BREEZE-M DEB (TANK) 3.8 13:51:52 18° NNW 13:52:32 20° N 13:55:28 10° NE
NOSS 2-1 (D) 4.3 13:50:19 10° NNW 13:54:00 49° ENE 13:58:58 10° SE
Cosmos 1484 Rocket 2.4 13:54:27 10° N 13:57:50 60° WNW 14:01:09 10° SSW
BREEZE M DEB (TANK) 1.3 13:55:48 10° SW 13:57:57 78° SE 14:01:00 10° NE
USA 59 Rocket 0.5 13:55:30 10° NNW 13:59:18 63° ENE 14:04:34 10° SE
Cosmos 841 Rocket 3.8 13:56:31 10° SW 14:01:27 42° WNW 14:06:26 10° N
Cosmos 2026 Rocket 3.9 13:55:46 10° SSW 14:01:48 73° W 14:07:52 10° N
Cosmos 2360 Rocket 4.3 13:59:41 10° N 14:04:07 23° ENE 14:08:31 10° ESE
Meteor 2-3 Rocket 3.8 13:59:06 10° SSW 14:04:44 56° W 14:10:22 10° N
Cosmos 1933 4.1 14:05:32 10° NNW 14:08:50 28° W 14:12:08 10° SSW
Cosmos 220 Rocket 4.5 14:06:00 10° SW 14:09:39 33° WNW 14:13:22 10° N
COSMOS 2455 2.9 14:05:34 10° NNW 14:11:34 74° WSW 14:17:33 10° SSE
Cosmos 1726 Rocket 3.8 14:08:42 10° NNW 14:12:54 47° W 14:16:57 10° SSW
SWAS 4.5 14:08:55 10° NNW 14:12:59 75° ENE 14:16:59 10° SSE
CZ-2D R/B 3.7 14:13:29 10° NNE 14:16:35 52° E 14:19:41 10° S
Delta 2 Rocket 3.0 14:14:20 10° W 14:17:15 51° S 14:20:10 10° ESE
NOSS 2-1 (C) 3.7 14:15:02 10° NNW 14:18:51 82° ENE 14:24:09 10° SE
Cosmos 1898 Rocket 3.8 14:15:53 10° NNW 14:20:53 46° WSW 14:25:52 10° S
Cosmos 1092 Rocket 4.1 14:15:33 10° SSW 14:21:44 58° W 14:27:54 10° N
Cosmos 1626 Rocket 4.0 14:18:01 10° S 14:22:24 69° E 14:26:49 10° NNE
Cosmos 1892 Rocket 4.2 14:19:39 10° SW 14:23:31 32° WNW 14:27:29 10° NNW
Cosmos 405 Rocket 3.2 14:20:54 10° S 14:24:03 53° E 14:27:15 10° NNE
Cosmos 2322 Rocket 3.6 14:19:08 10° N 14:24:25 38° ENE 14:29:38 10° SE
Cosmos 2219 Rocket 4.4 14:20:35 10° N 14:24:44 20° NE 14:28:51 10° ESE
COSMOS 2406 3.8 14:22:02 10° SW 14:27:10 35° WNW 14:32:21 10° N
SMAP 3.0 14:22:50 10° N 14:27:31 81° WNW 14:32:09 10° SSW
Cosmos 2237 4.3 14:22:25 10° NNW 14:28:02 61° WSW 14:33:37 10° S
